Tracking 27382 objects as of 4-Jun-2023
HD Live streaming from Space Station
objects crossing your sky now

ST5-B

Track ST5-B now!
10-day predictions
ST5-B is classified as:


NORAD ID: 28981
Int'l Code: 2006-008B
Perigee: 265.6 km
Apogee: 2,052.9 km
Inclination: 105.5 °
Period: 108.4 minutes
Semi major axis: 7530 km
RCS: 0.3032 m2 (medium)
Launch date: March 22, 2006
Source: United States (US)
Launch site: Pegasus launched from Western Range Air Space (WRAS)
Your satellite tracking list
Your tracking list is empty




NASA's NSSDC Master Catalog

Two Line Element Set (TLE):
1 28981U 06008B   23155.84145418  .00081274  46432-5  11792-2 0  9991
2 28981 105.4583   5.1092 1186734 173.4729 188.3510 13.28590817732277
Source of the keplerian elements: AFSPC